Location: Cahas Mountain Overlook
(37.0833°N, 80.1000°W)
Time: 19:00:23
(UTC-04:00)

Explorer 7 - Pass Details

Date: 15 February 2026
Orbit: 430 x 541 km, 50.2° (Epoch: 13 March)

Event Time Altitude Azimuth Distance (km) Brightness Sun altitude
Rises 22:21:40 0° 308° (NW) 2,600 - -51.4°
Reaches altitude 10° 22:23:50 10° 309° (NW) 1,732 - -51.7°
Maximum altitude 22:27:48 85° 39° (NE) 530 - -52.4°
Drops below altitude 10° 22:31:51 10° 127° (SE) 1,779 - -53.1°
Sets 22:34:06 0° 128° (SE) 2,678 - -53.4°
